Weather History for Branson, MO

Change the Weather History Date:

Saturday, August 3, 2013

  Actual Average (KHRO) Record (KHRO)
Temperature  
Mean Temperature 75 °F 79 °F  
Max Temperature 84 °F 90 °F 112 °F (2011)
Min Temperature 66 °F 68 °F 49 °F (1950)
Degree Days  
Heating Degree Days 0 0  
Month to date heating degree days 0  
Since 1 June heating degree days 6  
Since 1 July heating degree days 0  
Cooling Degree Days 10 14  
Month to date cooling degree days 42  
Year to date cooling degree days 860  
Since 1 June cooling degree days 721  
Growing Degree Days 25 (Base 50)    
Moisture  
Dew Point 71 °F    
Average Humidity 86    
Maximum Humidity 100    
Minimum Humidity 58    
Precipitation  
Precipitation 1.95 in 0.13 in 2.03 in (2013)
Month to date precipitation 0.38  
Year to date precipitation 25.76  
Snow  
Snow 0.00 in 0.00 in - ()
Month to date snowfall 0.0  
Since 1 June snowfall 0.0  
Since 1 July snowfall 0.0  
Snow Depth -    
Sea Level Pressure  
Sea Level Pressure 30.05 in    
Wind  
Wind Speed 5 mph (SSE)    
Max Wind Speed 15 mph    
Max Gust Speed 25 mph    
Visibility 8 miles    
Events Rain , Thunderstorm    
T = Trace of Precipitation, MM = Missing Value Source: NWS Daily Summary

Daily Weather History Graph

Daily Weather History Graph

Search for Another Location

Airport:

Trip Planner

Search our weather history database for the weather conditions in past years. The results will help you decide how hot, cold, wet, or windy it might be!

Date:

Astronomy

Aug. 03, 2013 Rise Set
Actual Time 6:20 AM CDT 8:16 PM CDT
Civil Twilight 5:52 AM CDT 8:44 PM CDT
Nautical Twilight 5:18 AM CDT 9:19 PM CDT
Astronomical Twilight 4:41 AM CDT 9:55 PM CDT
Moon 3:31 AM CDT (8/3) 5:58 PM CDT (8/3)
Length of Visible Light 14h 52m
Length of Day
13h 55m
Waning Crescent, 9% of the Moon is Illuminated
Aug 3
Waning Crescent
Aug 6
New
Aug 14
First Quarter
Aug 20
Full
Aug 28
Last Quarter

Hourly Weather History & Observations

Time (CDT) Temp. Heat Index Dew Point Humidity Pressure Visibility Wind Dir Wind Speed Gust Speed Precip Events Conditions
12:15 AM 75.2 °F - 73.4 °F 94% 29.97 in 7.0 mi SE 5.8 mph - N/A   Clear
12:35 AM 75.2 °F - 73.4 °F 94% 29.97 in 6.0 mi SE 4.6 mph - N/A   Clear
12:55 AM 75.2 °F - 73.4 °F 94% 29.97 in 6.0 mi SE 3.5 mph - N/A   Clear
1:15 AM 75.2 °F - 73.4 °F 94% 29.97 in 5.0 mi SE 5.8 mph - N/A   Clear
1:35 AM 75.2 °F - 73.4 °F 94% 29.97 in 5.0 mi SSE 5.8 mph - N/A   Clear
1:55 AM 75.2 °F - 75.2 °F 100% 29.96 in 5.0 mi SSE 4.6 mph - N/A   Clear
2:15 AM 77.0 °F - 73.4 °F 89% 29.94 in 8.0 mi South 6.9 mph - N/A   Clear
2:35 AM 77.0 °F - 73.4 °F 89% 29.94 in 8.0 mi South 4.6 mph - N/A   Clear
2:55 AM 77.0 °F - 73.4 °F 89% 29.94 in 9.0 mi South 3.5 mph - N/A   Mostly Cloudy
3:15 AM 78.8 °F - 73.4 °F 83% 29.95 in 10.0 mi Calm Calm - N/A   Scattered Clouds
3:35 AM 80.6 °F 85.4 °F 73.4 °F 79% 29.94 in 10.0 mi Calm Calm - N/A   Scattered Clouds
3:55 AM 80.6 °F 85.4 °F 73.4 °F 79% 29.93 in 10.0 mi SSW 5.8 mph - N/A   Partly Cloudy
4:15 AM 80.6 °F 85.4 °F 73.4 °F 79% 29.92 in 10.0 mi SSW 5.8 mph - N/A   Clear
4:35 AM 80.6 °F 85.4 °F 73.4 °F 79% 29.95 in 10.0 mi SSW 4.6 mph - N/A   Mostly Cloudy
4:55 AM 80.6 °F 85.4 °F 73.4 °F 79% 29.95 in 10.0 mi South 3.5 mph - N/A Thunderstorm Overcast
5:15 AM 80.6 °F 85.4 °F 73.4 °F 79% 29.96 in 10.0 mi North 4.6 mph - N/A   Overcast
5:35 AM 75.2 °F - 73.4 °F 94% 30.03 in 3.0 mi North 13.8 mph 19.6 mph N/A Rain , Thunderstorm Light Thunderstorms and Rain
5:55 AM 68.0 °F - 68.0 °F 100% 30.06 in 0.2 mi NE 15.0 mph 25.3 mph 1.73 in Rain , Thunderstorm Heavy Thunderstorms and Rain
6:15 AM 66.2 °F - 66.2 °F 100% 30.10 in 1.8 mi NE 11.5 mph 24.2 mph 0.22 in Rain , Thunderstorm Heavy Thunderstorms and Rain
6:45 AM 66.2 °F - 66.2 °F 100% 30.12 in 6.0 mi SE 5.8 mph - N/A Rain , Thunderstorm Heavy Thunderstorms and Rain
7:45 AM 66.2 °F - 66.2 °F 100% 30.13 in 4.0 mi Calm Calm - N/A Rain , Thunderstorm Light Thunderstorms and Rain
8:50 AM 66.2 °F - 66.2 °F 100% 30.15 in 4.0 mi Calm Calm - N/A Rain , Thunderstorm Light Thunderstorms and Rain
9:45 AM 66.2 °F - 66.2 °F 100% 30.14 in 6.0 mi SSE 8.1 mph - N/A Rain Light Rain
10:45 AM 68.0 °F - 68.0 °F 100% 30.12 in 8.0 mi South 9.2 mph - N/A   Mostly Cloudy
11:45 AM 71.6 °F - 68.0 °F 88% 30.10 in 8.0 mi SSW 4.6 mph - N/A   Mostly Cloudy
12:45 PM 77.0 °F - 68.0 °F 74% 30.07 in 10.0 mi SSW 5.8 mph - N/A   Mostly Cloudy
1:51 PM 80.6 °F 83.9 °F 69.8 °F 70% 30.07 in 10.0 mi Calm Calm - N/A   Mostly Cloudy
2:46 PM 82.4 °F 86.3 °F 69.8 °F 66% 30.07 in 10.0 mi Calm Calm - N/A   Mostly Cloudy
3:45 PM 84.2 °F 87.3 °F 68.0 °F 58% 30.07 in 10.0 mi NW 5.8 mph - N/A   Mostly Cloudy
4:46 PM 84.2 °F 89.6 °F 71.6 °F 66% 30.07 in 10.0 mi East 5.8 mph - N/A   Scattered Clouds
5:47 PM 84.2 °F 88.4 °F 69.8 °F 62% 30.07 in 10.0 mi East 4.6 mph - N/A   Scattered Clouds
6:50 PM 82.4 °F 87.2 °F 71.6 °F 70% 30.08 in 10.0 mi ESE 4.6 mph - N/A   Scattered Clouds
7:55 PM 78.8 °F - 71.6 °F 78% 30.08 in 10.0 mi SSE 5.8 mph - N/A   Scattered Clouds
8:46 PM 77.0 °F - 71.6 °F 83% 30.10 in 10.0 mi SSE 3.5 mph - N/A   Scattered Clouds
8:55 PM 75.2 °F - 71.6 °F 89% 30.11 in 10.0 mi SSE 4.6 mph - N/A   Clear
9:15 PM 75.2 °F - 71.6 °F 89% 30.12 in 10.0 mi Calm Calm - N/A   Clear
9:35 PM 75.2 °F - 71.6 °F 89% 30.13 in 10.0 mi South 4.6 mph - N/A   Scattered Clouds
9:55 PM 75.2 °F - 69.8 °F 83% 30.13 in 10.0 mi SSE 5.8 mph - N/A   Scattered Clouds
10:15 PM 75.2 °F - 69.8 °F 83% 30.13 in 10.0 mi SSE 5.8 mph - N/A   Clear
10:35 PM 75.2 °F - 69.8 °F 83% 30.13 in 10.0 mi South 3.5 mph - N/A   Clear
10:55 PM 73.4 °F - 69.8 °F 88% 30.13 in 10.0 mi Calm Calm - N/A   Clear
11:15 PM 73.4 °F - 69.8 °F 88% 30.13 in 10.0 mi South 3.5 mph - N/A   Scattered Clouds
11:35 PM 73.4 °F - 69.8 °F 88% 30.14 in 10.0 mi SSE 3.5 mph - N/A   Overcast
11:55 PM 75.2 °F - 69.8 °F 83% 30.14 in 10.0 mi Calm Calm - N/A   Overcast